Time,TemperatureF,DewpointF,PressureIn,WindDirection,WindDirectionDegrees,WindSpeedMPH,WindSpeedGustMPH,Humidity,HourlyPrecipIn,Conditions,Clouds,dailyrainin,SoftwareType,DateUTC
2013-10-17 00:04:00,59.0,-99.9,29.88,SE,132,4.0,-999.0,-999,-99.99,,,-99.99,,2013-10-17 04:04:00,
2013-10-17 00:24:00,59.0,-99.9,29.88,North,7,3.0,-999.0,-999,-99.99,,,-99.99,,2013-10-17 04:24:00,
2013-10-17 00:34:00,59.0,-99.9,29.88,North,7,3.0,-999.0,-999,-99.99,,,-99.99,,2013-10-17 04:34:00,
2013-10-17 00:54:00,59.0,-99.9,29.88,NW,325,5.0,-999.0,-999,-99.99,,,-99.99,,2013-10-17 04:54:00,
2013-10-17 01:04:00,59.0,-99.9,29.88,NW,325,5.0,-999.0,-999,-99.99,,,-99.99,,2013-10-17 05:04:00,
2013-10-17 01:23:00,59.0,-99.9,29.88,NW,313,5.0,-999.0,-999,-99.99,,,-99.99,,2013-10-17 05:23:00,
2013-10-17 01:34:00,59.0,-99.9,29.88,NW,313,5.0,-999.0,-999,-99.99,,,-99.99,,2013-10-17 05:34:00,
2013-10-17 01:42:00,59.0,-99.9,29.88,NW,313,5.0,-999.0,-999,-99.99,,,-99.99,,2013-10-17 05:42:00,
2013-10-17 01:52:00,59.0,-99.9,29.87,NNW,329,4.0,-999.0,-999,-99.99,,,-99.99,,2013-10-17 05:52:00,
2013-10-17 02:02:00,59.0,-99.9,29.87,NNW,329,4.0,-999.0,-999,-99.99,,,-99.99,,2013-10-17 06:02:00,
2013-10-17 02:22:00,59.0,-99.9,29.87,NW,313,5.0,-999.0,-999,-99.99,,,-99.99,,2013-10-17 06:22:00,
2013-10-17 02:33:00,59.0,-99.9,29.87,NW,313,5.0,-999.0,-999,-99.99,,,-99.99,,2013-10-17 06:33:00,
2013-10-17 02:42:00,59.0,-99.9,29.87,NW,313,5.0,-999.0,-999,-99.99,,,-99.99,,2013-10-17 06:42:00,
2013-10-17 02:52:00,59.0,-99.9,29.87,NW,307,4.0,-999.0,-999,-99.99,,,-99.99,,2013-10-17 06:52:00,
2013-10-17 03:02:00,59.0,-99.9,29.87,NW,307,4.0,-999.0,-999,-99.99,,,-99.99,,2013-10-17 07:02:00,
2013-10-17 03:22:00,59.0,-99.9,29.86,NNW,337,5.0,-999.0,-999,-99.99,,,-99.99,,2013-10-17 07:22:00,
2013-10-17 03:32:00,59.0,-99.9,29.86,NNW,337,5.0,-999.0,-999,-99.99,,,-99.99,,2013-10-17 07:32:00,
2013-10-17 03:52:00,59.0,-99.9,29.86,NW,319,4.0,-999.0,-999,-99.99,,,-99.99,,2013-10-17 07:52:00,
2013-10-17 04:02:00,59.0,-99.9,29.86,NW,319,4.0,-999.0,-999,-99.99,,,-99.99,,2013-10-17 08:02:00,
2013-10-17 04:22:00,59.0,-99.9,29.85,WNW,301,3.0,-999.0,-999,-99.99,,,-99.99,,2013-10-17 08:22:00,
2013-10-17 04:32:00,59.0,-99.9,29.85,WNW,301,3.0,-999.0,-999,-99.99,,,-99.99,,2013-10-17 08:32:00,
2013-10-17 04:42:00,59.0,-99.9,29.85,WNW,301,3.0,-999.0,-999,-99.99,,,-99.99,,2013-10-17 08:42:00,
2013-10-17 04:52:00,59.0,-99.9,29.85,West,270,2.0,-999.0,-999,-99.99,,,-99.99,,2013-10-17 08:52:00,
2013-10-17 05:02:00,59.0,-99.9,29.85,West,270,2.0,-999.0,-999,-99.99,,,-99.99,,2013-10-17 09:02:00,
2013-10-17 05:22:00,59.0,-99.9,29.85,NW,324,5.0,-999.0,-999,-99.99,,,-99.99,,2013-10-17 09:22:00,
2013-10-17 05:33:00,59.0,-99.9,29.85,NW,324,5.0,-999.0,-999,-99.99,,,-99.99,,2013-10-17 09:33:00,
2013-10-17 05:53:00,60.0,-99.9,29.85,West,260,4.0,-999.0,-999,-99.99,,,-99.99,,2013-10-17 09:53:00,
2013-10-17 06:03:00,60.0,-99.9,29.85,West,260,4.0,-999.0,-999,-99.99,,,-99.99,,2013-10-17 10:03:00,
2013-10-17 06:23:00,60.0,-99.9,29.86,West,281,8.0,-999.0,-999,-99.99,,,-99.99,,2013-10-17 10:23:00,
2013-10-17 06:33:00,60.0,-99.9,29.86,West,281,8.0,-999.0,-999,-99.99,,,-99.99,,2013-10-17 10:33:00,
2013-10-17 06:53:00,61.0,-99.9,29.85,SW,233,4.0,-999.0,-999,-99.99,,,-99.99,,2013-10-17 10:53:00,
2013-10-17 07:03:00,61.0,-99.9,29.85,SW,233,4.0,-999.0,-999,-99.99,,,-99.99,,2013-10-17 11:03:00,
2013-10-17 07:22:00,61.0,-99.9,29.84,SW,235,6.0,-999.0,-999,-99.99,,,-99.99,,2013-10-17 11:22:00,
2013-10-17 07:33:00,61.0,-99.9,29.84,SW,235,6.0,-999.0,-999,-99.99,,,-99.99,,2013-10-17 11:33:00,
2013-10-17 07:52:00,61.0,-99.9,29.84,SW,218,4.0,-999.0,-999,-99.99,,,-99.99,,2013-10-17 11:52:00,
2013-10-17 08:02:00,61.0,-99.9,29.84,SW,218,4.0,-999.0,-999,-99.99,,,-99.99,,2013-10-17 12:02:00,
2013-10-17 08:22:00,62.0,-99.9,29.85,West,265,6.0,-999.0,-999,-99.99,,,-99.99,,2013-10-17 12:22:00,
2013-10-17 08:32:00,62.0,-99.9,29.85,West,265,6.0,-999.0,-999,-99.99,,,-99.99,,2013-10-17 12:32:00,
2013-10-17 08:52:00,62.0,-99.9,29.85,West,272,8.0,-999.0,-999,-99.99,,,-99.99,,2013-10-17 12:52:00,
2013-10-17 09:02:00,62.0,-99.9,29.85,West,272,8.0,-999.0,-999,-99.99,,,-99.99,,2013-10-17 13:02:00,
2013-10-17 09:11:00,62.0,-99.9,29.85,West,272,8.0,-999.0,-999,-99.99,,,-99.99,,2013-10-17 13:11:00,
2013-10-17 09:22:00,63.0,-99.9,29.85,West,275,8.0,-999.0,-999,-99.99,,,-99.99,,2013-10-17 13:22:00,
2013-10-17 09:33:00,63.0,-99.9,29.85,West,275,8.0,-999.0,-999,-99.99,,,-99.99,,2013-10-17 13:33:00,
2013-10-17 09:52:00,64.0,-99.9,29.85,West,259,8.0,-999.0,-999,-99.99,,,-99.99,,2013-10-17 13:52:00,
2013-10-17 10:02:00,64.0,-99.9,29.85,West,259,8.0,-999.0,-999,-99.99,,,-99.99,,2013-10-17 14:02:00,
2013-10-17 10:22:00,65.0,-99.9,29.85,West,268,10.0,-999.0,-999,-99.99,,,-99.99,,2013-10-17 14:22:00,
2013-10-17 10:32:00,65.0,-99.9,29.85,West,268,10.0,-999.0,-999,-99.99,,,-99.99,,2013-10-17 14:32:00,
2013-10-17 10:52:00,65.0,-99.9,29.84,West,270,14.0,-999.0,-999,-99.99,,,-99.99,,2013-10-17 14:52:00,
2013-10-17 11:02:00,65.0,-99.9,29.84,West,270,14.0,-999.0,-999,-99.99,,,-99.99,,2013-10-17 15:02:00,
2013-10-17 11:22:00,66.0,-99.9,29.84,WNW,301,9.0,-999.0,-999,-99.99,,,-99.99,,2013-10-17 15:22:00,
2013-10-17 11:33:00,66.0,-99.9,29.84,WNW,301,9.0,-999.0,-999,-99.99,,,-99.99,,2013-10-17 15:33:00,
2013-10-17 11:43:00,66.0,-99.9,29.84,WNW,301,9.0,-999.0,-999,-99.99,,,-99.99,,2013-10-17 15:43:00,
2013-10-17 11:54:00,67.0,-99.9,29.84,NW,304,6.0,-999.0,-999,-99.99,,,-99.99,,2013-10-17 15:54:00,
2013-10-17 12:04:00,67.0,-99.9,29.84,NW,304,6.0,-999.0,-999,-99.99,,,-99.99,,2013-10-17 16:04:00,
2013-10-17 12:23:00,67.0,-99.9,29.83,WSW,251,7.0,-999.0,-999,-99.99,,,-99.99,,2013-10-17 16:23:00,
2013-10-17 12:30:00,66.0,-99.9,29.82,WSW,250,8.0,-999.0,-999,-99.99,,,-99.99,,2013-10-17 16:30:00,
2013-10-17 12:33:00,67.0,-99.9,29.83,WSW,251,7.0,-999.0,-999,-99.99,,,-99.99,,2013-10-17 16:33:00,
2013-10-17 12:43:00,67.0,-99.9,29.83,WSW,251,7.0,-999.0,-999,-99.99,,,-99.99,,2013-10-17 16:43:00,
2013-10-17 12:54:00,66.0,-99.9,29.82,WSW,250,8.0,-999.0,-999,-99.99,,,-99.99,,2013-10-17 16:54:00,
2013-10-17 13:02:00,66.0,-99.9,29.82,WSW,250,8.0,-999.0,-999,-99.99,,,-99.99,,2013-10-17 17:02:00,
2013-10-17 13:12:00,66.0,-99.9,29.82,WSW,250,8.0,-999.0,-999,-99.99,,,-99.99,,2013-10-17 17:12:00,
2013-10-17 13:22:00,66.0,-99.9,29.82,WSW,250,8.0,-999.0,-999,-99.99,,,-99.99,,2013-10-17 17:22:00,
2013-10-17 13:53:00,67.0,-99.9,29.79,WSW,258,9.0,-999.0,-999,-99.99,,,-99.99,,2013-10-17 17:53:00,
2013-10-17 14:02:00,67.0,-99.9,29.79,WSW,258,9.0,-999.0,-999,-99.99,,,-99.99,,2013-10-17 18:02:00,
2013-10-17 14:22:00,68.0,-99.9,29.79,West,264,10.0,-999.0,-999,-99.99,,,-99.99,,2013-10-17 18:22:00,
2013-10-17 14:32:00,68.0,-99.9,29.79,West,264,10.0,-999.0,-999,-99.99,,,-99.99,,2013-10-17 18:32:00,
2013-10-17 14:52:00,68.0,-99.9,29.78,West,280,6.0,-999.0,-999,-99.99,,,-99.99,,2013-10-17 18:52:00,
2013-10-17 15:02:00,68.0,-99.9,29.78,West,280,6.0,-999.0,-999,-99.99,,,-99.99,,2013-10-17 19:02:00,
2013-10-17 15:22:00,68.0,-99.9,29.78,NNW,334,6.0,-999.0,-999,-99.99,,,-99.99,,2013-10-17 19:22:00,
2013-10-17 15:32:00,68.0,-99.9,29.78,NNW,334,6.0,-999.0,-999,-99.99,,,-99.99,,2013-10-17 19:32:00,
2013-10-17 15:42:00,68.0,-99.9,29.78,NNW,334,6.0,-999.0,-999,-99.99,,,-99.99,,2013-10-17 19:42:00,
2013-10-17 15:53:00,69.0,-99.9,29.77,WNW,297,7.0,-999.0,-999,-99.99,,,-99.99,,2013-10-17 19:53:00,
2013-10-17 16:02:00,69.0,-99.9,29.77,WNW,297,7.0,-999.0,-999,-99.99,,,-99.99,,2013-10-17 20:02:00,
2013-10-17 16:22:00,69.0,-99.9,29.76,West,276,6.0,-999.0,-999,-99.99,,,-99.99,,2013-10-17 20:22:00,
2013-10-17 16:32:00,69.0,-99.9,29.76,West,276,6.0,-999.0,-999,-99.99,,,-99.99,,2013-10-17 20:32:00,
2013-10-17 16:42:00,69.0,-99.9,29.76,West,276,6.0,-999.0,-999,-99.99,,,-99.99,,2013-10-17 20:42:00,
2013-10-17 16:52:00,67.0,-99.9,29.76,WSW,239,10.0,-999.0,-999,-99.99,,,-99.99,,2013-10-17 20:52:00,
2013-10-17 17:02:00,67.0,-99.9,29.76,WSW,239,10.0,-999.0,-999,-99.99,,,-99.99,,2013-10-17 21:02:00,
2013-10-17 17:12:00,67.0,-99.9,29.76,WSW,239,10.0,-999.0,-999,-99.99,,,-99.99,,2013-10-17 21:12:00,
2013-10-17 17:22:00,67.0,-99.9,29.76,WSW,258,10.0,-999.0,-999,-99.99,,,-99.99,,2013-10-17 21:22:00,
2013-10-17 17:34:00,67.0,-99.9,29.76,WSW,258,10.0,-999.0,-999,-99.99,,,-99.99,,2013-10-17 21:34:00,
2013-10-17 17:54:00,66.0,-99.9,29.75,SW,220,7.0,-999.0,-999,-99.99,,,-99.99,,2013-10-17 21:54:00,
2013-10-17 18:04:00,66.0,-99.9,29.75,SW,220,7.0,-999.0,-999,-99.99,,,-99.99,,2013-10-17 22:04:00,
2013-10-17 18:24:00,64.0,-99.9,29.76,SW,235,8.0,-999.0,-999,-99.99,,,-99.99,,2013-10-17 22:24:00,
2013-10-17 18:33:00,64.0,-99.9,29.76,SW,235,8.0,-999.0,-999,-99.99,,,-99.99,,2013-10-17 22:33:00,
2013-10-17 18:53:00,64.0,-99.9,29.77,West,266,11.0,-999.0,-999,-99.99,,,-99.99,,2013-10-17 22:53:00,
2013-10-17 19:03:00,64.0,-99.9,29.77,West,266,11.0,-999.0,-999,-99.99,,,-99.99,,2013-10-17 23:03:00,
2013-10-17 19:23:00,64.0,-99.9,29.76,WSW,246,9.0,-999.0,-999,-99.99,,,-99.99,,2013-10-17 23:23:00,
2013-10-17 19:34:00,64.0,-99.9,29.76,WSW,246,9.0,-999.0,-999,-99.99,,,-99.99,,2013-10-17 23:34:00,
2013-10-17 19:53:00,63.0,-99.9,29.76,West,264,9.0,-999.0,-999,-99.99,,,-99.99,,2013-10-17 23:53:00,
2013-10-17 20:02:00,63.0,-99.9,29.76,West,264,9.0,-999.0,-999,-99.99,,,-99.99,,2013-10-18 00:02:00,
2013-10-17 20:12:00,63.0,-99.9,29.76,West,264,9.0,-999.0,-999,-99.99,,,-99.99,,2013-10-18 00:12:00,
2013-10-17 20:22:00,63.0,-99.9,29.76,SW,229,11.0,-999.0,-999,-99.99,,,-99.99,,2013-10-18 00:22:00,
2013-10-17 20:33:00,63.0,-99.9,29.76,SW,229,11.0,-999.0,-999,-99.99,,,-99.99,,2013-10-18 00:33:00,
2013-10-17 20:53:00,63.0,-99.9,29.76,WSW,258,7.0,-999.0,-999,-99.99,,,-99.99,,2013-10-18 00:53:00,
2013-10-17 21:02:00,63.0,-99.9,29.76,WSW,258,7.0,-999.0,-999,-99.99,,,-99.99,,2013-10-18 01:02:00,
2013-10-17 21:22:00,63.0,-99.9,29.76,WSW,243,12.0,-999.0,-999,-99.99,,,-99.99,,2013-10-18 01:22:00,
2013-10-17 21:32:00,63.0,-99.9,29.76,WSW,243,12.0,-999.0,-999,-99.99,,,-99.99,,2013-10-18 01:32:00,
2013-10-17 21:42:00,63.0,-99.9,29.76,WSW,243,12.0,-999.0,-999,-99.99,,,-99.99,,2013-10-18 01:42:00,
2013-10-17 21:53:00,63.0,-99.9,29.75,West,275,6.0,-999.0,-999,-99.99,,,-99.99,,2013-10-18 01:53:00,
2013-10-17 22:02:00,63.0,-99.9,29.75,West,275,6.0,-999.0,-999,-99.99,,,-99.99,,2013-10-18 02:02:00,
2013-10-17 22:22:00,63.0,-99.9,29.76,West,268,10.0,-999.0,-999,-99.99,,,-99.99,,2013-10-18 02:22:00,
2013-10-17 22:33:00,63.0,-99.9,29.76,West,268,10.0,-999.0,-999,-99.99,,,-99.99,,2013-10-18 02:33:00,
2013-10-17 22:52:00,63.0,-99.9,29.74,WSW,240,9.0,-999.0,-999,-99.99,,,-99.99,,2013-10-18 02:52:00,
2013-10-17 23:03:00,63.0,-99.9,29.74,WSW,240,9.0,-999.0,-999,-99.99,,,-99.99,,2013-10-18 03:03:00,
2013-10-17 23:22:00,64.0,-99.9,29.73,WSW,257,8.0,-999.0,-999,-99.99,,,-99.99,,2013-10-18 03:22:00,
2013-10-17 23:35:00,64.0,-99.9,29.73,WSW,257,8.0,-999.0,-999,-99.99,,,-99.99,,2013-10-18 03:35:00,
2013-10-17 23:55:00,64.0,-99.9,29.72,West,261,19.0,-999.0,-999,-99.99,,,-99.99,,2013-10-18 03:55:00,